shoulder
new_line
new_line
first
second
third
Al di la della Luna; Beyond the Moon; Astrophotography; Astrofotografia; Danilo Pivato
 
 
         
         
2005

Orbital Elements

Epoch 2004 Apr. 25.0 TT = JDT 2453120.5
T 2004 Apr. 28.99582 TT                                 MPC
q   1.4811476            (2000.0)            P               Q
z  +0.0000581      Peri.   43.76789     +0.80246289     -0.57117352
 +/-0.0000118      Node   347.05863     +0.03338083     +0.33188778
e   0.9999140      Incl.   50.44345     +0.59576759     +0.75074051                        
 
         
         
2005.03.08
 
         
         
       
         
         
         
         
         
         

 

       
 
Since: 01/01/2004
 
       
 
Since: 01/11/2010